Location: Bern�tre
(50.1974°N, 2.0915°E)
Time: 08:57:18
(UTC+00:00)

ARIANE 5 R/B - Pass Details

Date: 18 September 2020
Orbit: 620 x 657 km, 98.2° (Epoch: 09 October)

Event Time Altitude Azimuth Distance (km) Brightness Sun altitude
Exits shadow 19:37:43 23° 76° (ENE) 1,323 3.8 -16.4°
Maximum altitude 19:38:21 24° 62° (ENE) 1,294 3.8 -16.4°
Drops below altitude 10° 19:41:51 10° 9° (N) 2,003 5.4 -17.0°
Sets 19:44:20 0° 356° (N) 2,912 6.4 -17.3°
